Location: B?jaj?g
(11.7167°N, 92.6667°E)
Time: 11:02:19
(UTC+00:00)

CZ-3 Stage 3 - Visible Passes

Search period start: 16 January 2021 00:00
Search period end: 26 January 2021 00:00
Orbit: 465 x 35038 km, 30.5° (Epoch: 15 January)

Date Brightness Start Highest point End Pass type
(mag) Time Alt. Az. Time Alt. Az. Time Alt. Az.
16 Jan 5.9 12:42:38 10° WNW 12:51:10 23° SW 12:54:34 10° S visible
16 Jan 6.6 23:53:47 10° SW 01:53:47 64° WSW 09:31:47 10° E visible
17 Jan 8.3 20:24:31 10° SSW 02:19:19 80° NNE 06:02:28 10° ENE visible
18 Jan 10.3 20:23:15 10° E 00:31:24 37° ENE 02:16:30 10° ENE visible
20 Jan 8.1 20:57:58 10° SSW 01:42:58 85° NNE 06:37:59 10° ENE visible
21 Jan 8.2 19:33:33 10° E 00:59:59 47° ENE 02:57:54 10° ENE visible
23 Jan 7.8 21:31:55 10° SSW 01:05:24 90° SSW 07:13:03 10° ENE visible
24 Jan 8.1 18:13:47 10° SSE 01:26:00 57° ENE 03:37:01 10° ENE visible
